Orbital Elements at Epoch 2459200.5 (2020-Dec-17.0) TDB
Reference: JPL 25 (heliocentric ecliptic J2000)
Element | Value | Uncertainty (1-sigma) | Units |
e | .2117231387840537 | 3.1869e-08 | |
a | 2.564045453647742 | 1.3619e-08 | au |
q | 2.021177702216459 | 8.1638e-08 | au |
i | 13.30410989852138 | 4.3534e-06 | deg |
node | 118.0576548960952 | 2.1764e-05 | deg |
peri | 44.97183710559616 | 2.745e-05 | deg |
M | 277.2904211961912 | 1.9463e-05 | deg |
tp | 2459545.040528048207 (2021-Nov-26.54052805) | 8.2848e-05 | TDB |
period | 1499.639967839407 4.11 | 1.1948e-05 3.271e-08 | d yr |
n | .2400576189754843 | 1.9126e-09 | deg/d |
Q | 3.106913205079024 | 1.6502e-08 | au |
|
| | Orbit Determination Parameters
Additional Information
|